Location: Dortmund
(51.5019°N, 7.6520°E)
Time: 22:15:46
(UTC+02:00)

ISS - Pass Details

Date: 27 March 2019
Orbit: 408 x 410 km, 51.6° (Epoch: 23 April)

Event Time Altitude Azimuth Distance (km) Brightness Sun altitude
Rises 20:07:33 0° 255° (WSW) 2,334 1.0 -12.0°
Reaches altitude 10° 20:09:38 10° 254° (WSW) 1,474 -0.1 -12.3°
Maximum altitude 20:12:57 79° 168° (SSE) 421 -3.9 -12.8°
Enters shadow 20:14:59 22° 83° (E) 968 -2.4 -13.1°
